This is the latest recevied weather packets stored in our database for station/object K2MRS. If no packets are shown the sender has not sent any weather packets the latest 10 day(s).
| Time | Temp. | Humidity | Pressure | Rain* | Wind** | Luminosity | Snow |
|---|---|---|---|---|---|---|---|
| 1778019429 | 16.67° C | 77% | 1016.2 hPa | 0 mm | - | 220 W/m² | - |
| 1778019124 | 16.11° C | 77% | 1016.2 hPa | 0 mm | - | 260 W/m² | - |
| 1778018955 | 16.11° C | 77% | 1016.2 hPa | 0 mm | - | 279 W/m² | - |
| 1778018524 | 16.11° C | 77% | 1016.3 hPa | 0 mm | - | 283 W/m² | - |
| 1778018356 | 16.11° C | 76% | 1016.3 hPa | 0 mm | - | 295 W/m² | - |
| 1778017922 | 16.67° C | 76% | 1016.3 hPa | 0 mm | - | 330 W/m² | - |
| 1778017623 | 16.67° C | 76% | 1016.4 hPa | 0 mm | - | 332 W/m² | - |
| 1778017322 | 16.67° C | 75% | 1016.3 hPa | 0 mm | - | 348 W/m² | - |
| 1778017023 | 16.67° C | 76% | 1016.3 hPa | 0 mm | - | 425 W/m² | - |
| 1778016722 | 16.67° C | 75% | 1016.4 hPa | 0 mm | - | 496 W/m² | - |
| 1778016422 | 16.67° C | 78% | 1016.4 hPa | 0 mm | - | 896 W/m² | - |
| 1778016121 | 16.11° C | 79% | 1016.4 hPa | 0 mm | - | 438 W/m² | - |
| 1778015821 | 15.56° C | 77% | 1016.6 hPa | 0 mm | - | 374 W/m² | - |
| 1778015521 | 16.11° C | 77% | 1016.6 hPa | 0 mm | - | 345 W/m² | - |
| 1778015220 | 16.11° C | 77% | 1016.4 hPa | 0 mm | - | 285 W/m² | - |
| 1778014920 | 16.11° C | 77% | 1016.4 hPa | 0 mm | - | 234 W/m² | - |
| 1778014746 | 16.11° C | 77% | 1016.6 hPa | 0 mm | - | 267 W/m² | - |
| 1778014444 | 16.67° C | 76% | 1016.6 hPa | 0 mm | - | 336 W/m² | - |
| 1778014018 | 16.67° C | 76% | 1016.6 hPa | 0 mm | - | 399 W/m² | - |
| 1778013717 | 16.67° C | 75% | 1016.6 hPa | 0 mm | - | 411 W/m² | - |
| 1778013416 | 16.67° C | 76% | 1016.7 hPa | 0 mm | - | 439 W/m² | - |
| 1778013117 | 16.11° C | 76% | 1016.6 hPa | 0 mm | - | 527 W/m² | - |
| 1778012944 | 16.11° C | 77% | 1016.7 hPa | 0 mm | - | 631 W/m² | - |
| 1778012514 | 15.56° C | 79% | 1016.7 hPa | 0 mm | - | 661 W/m² | - |
| 1778012213 | 15.56° C | 80% | 1016.7 hPa | 0 mm | - | 671 W/m² | - |
* Rain latest hour (hover to see other rain measurements)
** Current wind speed in m/s (hover to see current wind gust speed)